SCP
-0 0 -0 0 0 0 0 0 -0 -0 -0 0 0 0 0 0 0 0 0 0 0 0 0 0 0 0 0 0 0 0 0 0 0 0 0 0 0 0 0 0 0 0 0 0 0
-0 0 0 0 0 0 0 0 -0 -0 -0 0 0 0 0 0 0 0 0 0 0 0 0 0 0 0 0 0 0 0 0 0 0 0 0 0 0 0 0 0 0 0 0 0 0
-0 -0 -0 -0 0 0 0 0 0 -0 -0 0 0 0 0 0 0 0 0 0 0 0 0 0 0 0 0 0 0 0 0 0 0 0 0 0 0 0 0 0 0 0 0 0 0
0 -0 -0 -0 -0 -0 -0 0 0 -0 0 0 0 0 0 0 0 0 0 0 0 -0 0 0 0 0 0 0 0 0 0 0 0 0 0 0 0 0 0 0 0 0 0 0 0
0 0 -0 -0 -0 -0 -0 -0 -0 0 0 0 0 0 0 0 0 0 0 0 0 0 0 0 0 0 0 0 0 0 0 0 0 0 0 0 0 0 0 0 0 0 0 0 0
-0 -0 0 -0 -0 -0 -0 -0 -0 -0 0 0 0 0 0 0 0 0 0 0 -0 0 0 0 0 0 0 0 0 0 0 0 0 0 0 0 0 0 0 0 0 0 0 0 0
-0 0 -0 -0 0 -0 -0 -0 -0 -0 -0 -0 0 0 0 0 0 0 0 -0 -0 -0 0 0 0 0 0 0 0 0 0 0 0 0 0 0 0 0 0 0 0 0 0 0 0
0 0 -0 -0 -0 0 -0 -0 -0 -0 -0 -0 0 -0 0 0 0 0 0 0 0 -0 0 0 0 0 0 0 0 0 0 0 0 0 0 0 0 0 0 0 0 0 0 0 0
0 0 0 -0 -0 0 -0 -0 -0 -0 -0 -0 -0 0 0 0 0 0 0 0 0 0 0 0 0 0 0 0 0 0 0 0 0 0 0 0 0 0 0 0 0 0 0 0 0
0 0 0 -0 -0 -0 -0 0 0 -0 -0 -0 0 0 0 0 0 0 0 0 0 0 0 0 0 0 0 0 0 0 0 0 0 0 0 0 0 0 0 0 0 0 0 0 0
0 -0 0 0 -0 -0 -0 0 0 0 -0 -0 0 0 0 0 0 0 0 0 0 0 0 0 0 0 0 0 0 0 0 0 0 0 0 0 0 0 0 0 0 0 0 0 0
-0 0 0 0 -0 -0 -0 -0 0 0 -0 0 -0 0 0 0 0 0 0 0 0 0 0 0 0 0 0 0 0 0 0 0 0 0 0 0 0 0 0 0 0 0 0 0 0
-0 -0 0 -0 -0 -0 -0 0 0 0 -0 0 0 0 0 0 0 0 0 -0 0 -0 -0 0 -0 0 0 0 0 0 0 0 0 0 0 0 0 0 0 0 0 0 0 0 0
-0 -0 -0 -0 0 0 0 0 0 0 -0 0 0 0 0 -0 0 0 0 -0 0 0 -0 0 0 0 0 0 0 0 0 0 0 0 0 0 0 0 0 0 0 0 0 0 0
-0 -0 -0 0 -0 0 0 -0 -0 0 0 0 0 0 0 0 0 0 0 -0 0 0 0 0 -0 0 0 0 0 0 0 0 0 0 0 0 0 0 0 0 0 0 0 0 0
-0 -0 -0 0 0 0 -0 -0 -0 -0 0 0 0 0 0 -0 0 0 0 0 0 0 0 0 0 0 0 0 0 0 0 0 0 0 0 0 0 0 0 0 0 0 0 0 0
-0 -0 0 -0 -0 -0 -0 -0 -0 0 0 0 0 0 0 0 0 0 0 0 0 0 0 0 0 0 0 0 0 0 0 0 0 0 0 0 0 0 0 0 0 0 0 0 0
-0 -0 0 0 -0 -0 -0 -0 -0 0 0 0 0 0 0 0 0 0 0 0 0 0 0 0 0 0 0 0 0 0 0 0 0 0 0 0 0 0 0 0 0 0 0 0 0
-0 0 0 -0 -0 -0 -0 -0 0 0 0 0 0 -0 0 0 0 0 0 0 0 0 0 0 0 0 0 0 0 0 0 0 0 0 0 0 0 0 0 0 0 0 0 0 0
0 0 0 -0 -0 -0 0 0 0 0 0 0 0 0 0 0 0 0 0 0 0 0 0 0 0 0 0 0 0 0 0 0 0 0 0 0 0 0 0 0 0 0 0 0 0
0 0 0 -0 -0 0 -0 0 0 0 0 0 0 0 0 0 -0 0 0 0 0 0 0 0 0 0 0 0 0 0 0 0 0 0 0 0 0 0 0 0 0 0 0 0 0
0 0 0 0 0 0 0 0 0 0 0 0 0 0 0 0 0 0 0 0 0 0 0 0 0 0 0 0 0 0 0 0 0 0 0 0 0 0 0 0 0 0 0 0 0
0 0 0 0 0 0 0 0 0 0 0 0 0 0 0 0 0 0 0 0 0 0 0 0 0 0 0 0 0 0 0 0 0 0 0 0 0 0 0 0 0 0 0 0 0
0 0 0 0 0 0 0 0 0 0 0 0 0 0 0 0 0 0 0 0 0 0 0 0 0 0 0 0 0 0 0 0 0 0 0 0 0 0 0 0 0 0 0 0 0
0 0 0 0 0 0 0 0 0 0 0 0 0 0 0 0 0 0 0 0 0 0 0 0 0 0 0 0 0 0 0 0 0 0 0 0 0 0 0 0 0 0 0 0 0
0 0 0 0 0 0 0 0 0 0 0 0 0 0 0 0 0 0 0 0 0 0 0 0 0 0 0 0 0 0 0 0 0 0 0 0 0 0 0 0 0 0 0 0 0
0 0 0 0 0 0 0 0 0 0 0 0 0 0 0 0 0 0 0 0 0 0 0 0 0 0 0 0 0 0 0 0 0 0 0 0 0 0 0 0 0 0 0 0 0
Wind_Speed_500mb
49 46 41 35 32 32 25 20 16 17 20 19 20 20 23 19 16 20 27 23 37 26 21 16 26 32 30 31 32 24 27 34 44 47 32 16 19 36 16 18 22 23 20 17 11
50 47 42 38 32 29 29 23 20 17 17 18 18 19 20 15 19 35 31 36 39 35 20 29 33 35 41 39 27 25 24 41 37 31 26 31 38 39 18 31 33 35 30 28 24
51 52 46 40 34 29 25 25 21 19 16 16 16 16 12 10 20 8 24 29 33 31 26 25 27 37 42 35 45 41 34 32 35 22 21 31 36 25 27 34 39 36 35 26 28
46 51 53 47 37 31 27 20 19 18 18 15 12 11 8 2 3 2 10 22 29 39 23 29 32 41 34 35 38 35 38 45 34 17 23 31 34 36 34 39 34 28 28 33 32
42 47 49 51 48 36 27 23 18 17 16 16 10 7 5 13 12 4 10 16 31 28 30 31 35 37 32 32 34 35 35 33 36 31 33 35 34 32 37 30 23 28 28 28 33
44 46 50 50 46 46 32 22 19 16 19 18 13 6 6 26 2 10 16 19 27 24 27 31 25 35 22 29 32 26 40 37 29 34 36 33 34 36 36 21 29 28 29 30 31
48 50 51 52 53 44 43 26 20 19 18 15 13 9 19 13 11 15 19 19 22 24 24 28 23 24 22 22 24 35 25 28 34 34 30 26 34 38 44 32 30 28 28 27 27
46 50 52 52 53 51 48 29 22 22 21 12 10 5 16 13 14 23 22 16 24 21 17 18 19 30 22 12 13 29 30 30 36 39 35 18 32 20 10 12 26 28 26 25 27
46 49 52 55 55 53 54 24 16 21 17 7 4 12 21 15 23 28 25 23 23 20 14 15 20 27 24 21 26 26 28 38 31 21 21 26 26 25 10 21 29 29 30 33 32
49 52 54 55 56 51 48 14 10 13 10 5 14 15 20 21 23 32 30 25 27 22 21 23 20 23 25 27 27 26 34 30 27 21 21 31 35 31 25 29 30 33 31 32 33
54 56 58 53 53 44 35 4 5 1 18 23 6 15 7 9 25 31 32 27 32 30 28 31 25 30 35 34 36 31 26 26 16 18 18 25 31 32 33 29 38 38 38 35 32
50 57 59 58 47 36 15 13 14 6 17 29 32 31 14 12 24 34 35 32 34 32 33 25 31 33 29 22 19 26 29 31 29 24 23 32 38 32 34 34 44 41 42 37 32
57 68 73 55 36 24 10 25 13 13 17 13 9 20 29 25 26 40 43 43 30 33 35 35 24 14 25 27 28 31 32 31 30 24 22 32 41 42 41 55 47 34 33 34 26
63 72 58 35 7 5 14 4 7 12 12 21 17 10 19 28 23 28 40 44 26 30 33 31 32 27 21 31 29 33 31 30 30 28 27 27 27 30 25 24 31 36 29 33 19
67 58 46 20 11 4 3 2 5 5 8 21 16 13 17 28 8 34 32 45 34 28 21 30 29 29 38 35 27 31 25 23 24 31 35 38 26 30 28 35 28 19 39 11 26
63 44 36 15 1 10 12 6 3 12 4 13 13 19 23 33 9 17 31 33 21 31 29 35 16 13 23 25 25 20 22 28 33 32 34 39 36 33 33 22 12 22 6 17 26
54 33 23 6 2 2 5 7 12 11 5 8 10 16 22 23 17 20 24 29 26 20 26 32 38 33 28 28 26 26 24 23 30 29 33 36 34 28 12 13 14 19 23 24 29
45 24 18 4 11 6 6 15 11 11 7 9 8 12 17 8 16 16 14 26 33 33 28 26 27 35 30 43 34 34 32 23 29 32 36 43 34 18 9 11 20 25 18 22 25
26 13 8 9 13 6 17 16 12 20 13 12 17 17 13 10 14 12 23 22 19 19 22 20 36 33 19 22 19 27 33 29 35 37 35 37 50 45 42 25 9 14 23 23 32
15 6 6 6 8 6 14 9 5 7 12 13 19 11 13 10 15 9 12 11 29 27 18 18 33 39 32 12 28 26 27 26 15 17 37 29 29 16 15 9 11 6 21 28 34
11 13 5 2 6 18 16 11 2 9 16 11 17 16 14 22 23 18 14 11 17 13 18 18 11 18 33 26 30 23 25 26 30 26 23 31 23 12 5 16 26 32 29 30 38
8 8 5 4 22 9 12 9 7 12 8 10 11 19 15 17 21 26 25 23 2 4 11 15 13 26 38 35 32 33 32 26 17 26 27 25 29 36 37 12 15 21 35 49 43
16 13 7 6 13 10 12 11 6 13 12 6 8 7 9 15 9 17 19 18 18 17 10 10 12 19 24 37 41 29 29 29 32 35 47 37 30 14 19 22 41 43 37 45 43
12 6 8 4 4 14 6 11 10 4 16 11 12 11 16 18 10 15 15 12 19 19 14 14 25 26 25 11 5 13 26 30 30 25 35 40 49 43 43 46 35 43 44 39 44
3 6 6 4 6 14 9 4 11 6 3 8 8 9 5 7 14 26 23 20 26 32 28 9 24 37 41 41 41 44 44 41 44 47 46 49 53 47 44 45 46 55 37 41 44
13 10 5 16 10 13 6 4 7 5 8 5 15 11 9 14 19 31 25 21 23 6 11 9 10 32 37 40 43 46 43 43 45 48 49 49 49 43 51 51 40 42 44 51 53
6 5 9 4 4 10 5 4 5 5 13 5 12 15 22 22 20 28 33 41 26 19 19 7 11 11 29 35 32 32 36 36 30 34 36 36 34 34 38 35 41 41 46 56 66
Wind_Direction_500mb
12 6 360 358 353 339 333 322 314 302 295 289 285 284 275 256 239 251 239 227 217 224 204 196 203 208 211 219 224 232 255 243 243 253 253 251 233 252 231 274 260 260 273 288 297
15 14 7 359 358 355 343 335 325 314 306 300 289 286 274 267 260 260 234 222 222 212 193 194 195 197 206 212 206 217 228 242 255 270 265 266 247 247 227 245 259 249 252 261 266
15 15 13 3 355 354 354 343 337 324 312 299 289 280 272 281 295 190 210 221 205 196 180 200 202 197 213 212 208 211 239 241 250 267 263 277 277 261 261 258 255 266 269 274 267
11 12 11 11 358 347 343 345 339 337 320 308 300 282 272 332 318 211 218 198 189 167 196 203 202 203 219 214 220 236 230 243 263 277 238 255 257 259 257 261 268 275 271 268 262
354 358 3 2 3 350 334 330 330 330 336 320 309 295 285 242 261 217 158 169 171 172 191 197 201 209 219 213 224 218 247 232 249 247 255 266 263 264 263 257 255 258 258 256 260
338 341 346 350 354 353 335 315 311 317 322 328 320 301 279 253 142 174 147 152 166 181 197 204 215 218 257 239 216 212 241 249 241 247 240 246 255 256 249 238 250 245 255 259 257
329 331 335 338 340 347 339 308 292 296 303 307 311 291 265 235 179 176 173 170 189 193 204 209 226 202 230 224 235 246 253 237 245 241 245 252 262 252 242 246 249 252 251 255 258
327 329 330 333 333 337 339 312 290 291 295 289 289 264 261 212 202 191 183 194 184 188 204 200 211 216 233 199 212 232 230 249 228 216 229 216 259 263 136 206 229 237 255 251 250
327 327 328 329 328 332 334 311 282 294 288 265 312 224 258 248 201 194 191 183 181 186 187 205 212 226 206 228 226 209 244 227 244 173 241 198 258 210 179 233 255 259 251 248 243
326 325 323 323 323 328 332 305 291 289 262 212 251 250 241 231 197 195 195 200 193 197 207 217 221 225 227 217 233 223 215 239 253 185 204 249 240 253 228 242 248 247 251 254 255
327 326 321 320 319 325 329 346 16 173 219 241 289 258 131 153 175 189 191 199 199 210 222 203 225 223 234 222 258 293 287 296 263 232 243 263 275 271 267 255 253 252 255 254 250
339 331 323 315 314 316 304 240 335 311 292 249 253 249 229 198 185 192 186 199 202 218 216 222 232 253 241 266 261 260 258 258 261 265 259 268 267 268 262 256 255 263 265 260 259
338 332 317 313 308 301 235 262 278 306 270 174 224 231 217 210 221 195 194 205 204 224 226 234 233 200 269 243 240 240 251 263 265 275 260 265 265 253 247 245 250 265 262 264 266
339 331 327 328 300 217 282 284 230 288 272 140 178 163 189 201 227 204 204 211 235 240 232 245 242 241 251 241 232 246 240 243 255 262 262 266 282 274 276 259 217 219 241 245 250
342 336 340 322 220 210 245 279 260 259 256 138 119 148 175 198 68 200 201 213 241 234 253 240 229 242 236 238 238 256 275 273 269 267 277 266 264 266 252 248 234 232 239 248 268
342 337 352 18 10 223 274 265 260 238 259 122 135 154 162 208 202 156 198 231 264 274 254 261 274 277 252 234 240 279 265 261 264 262 259 261 261 268 261 276 266 202 263 310 305
340 329 352 158 92 322 196 208 232 255 109 136 124 194 164 183 179 181 198 210 223 215 246 257 255 252 229 259 242 224 256 266 260 247 256 257 247 258 310 284 223 274 302 301 294
339 340 359 354 279 217 179 228 264 48 23 52 274 234 220 184 215 201 219 212 224 271 286 273 257 229 244 225 250 256 246 258 269 273 287 295 279 270 291 263 275 263 278 278 284
344 349 358 323 147 194 251 234 6 17 15 334 302 257 226 234 246 234 255 251 244 258 287 280 274 283 243 293 279 261 253 296 294 283 278 276 279 276 269 215 236 248 246 260 268
356 325 349 337 179 230 255 286 347 12 324 300 288 312 299 290 215 241 253 265 251 252 281 295 294 278 272 254 254 257 286 278 259 271 266 267 279 270 341 295 264 254 271 282 283
20 265 345 281 218 235 260 34 25 76 330 325 327 308 318 317 301 255 233 251 226 235 224 249 253 273 298 243 258 243 246 248 265 256 265 280 273 308 262 314 304 305 298 296 286
292 260 351 279 244 217 291 35 27 281 262 289 296 309 299 297 295 283 272 250 30 266 272 251 263 262 260 265 269 268 270 270 248 269 251 264 267 276 283 284 288 276 270 268 289
306 291 309 264 273 209 98 261 258 307 315 313 280 307 301 289 292 271 287 302 295 257 216 249 230 266 256 237 232 245 264 268 262 267 259 268 269 241 237 266 247 268 289 300 306
300 267 157 265 327 311 336 260 282 113 292 297 283 293 293 277 282 283 299 356 336 294 43 279 265 258 273 287 170 281 278 277 275 265 269 264 282 281 282 286 299 301 295 301 299
333 72 343 306 107 321 281 318 264 271 336 278 223 291 302 259 260 251 261 292 297 257 273 325 262 261 265 277 283 286 281 273 264 261 262 276 277 282 299 305 299 295 307 305 293
329 339 302 292 298 275 181 159 292 140 272 312 284 169 270 266 266 300 301 286 276 255 285 185 267 274 268 261 265 268 271 269 269 274 275 280 283 285 282 290 302 348 321 304 308
337 306 292 340 230 270 357 352 155 279 264 320 320 290 294 302 308 272 253 270 247 253 266 255 248 259 258 257 262 263 260 265 276 264 268 276 299 326 311 328 331 318 303 304 303
Wind_Speed_850mb
49 46 41 35 32 32 25 20 16 17 20 19 20 20 23 19 16 20 27 23 37 26 21 16 26 32 30 31 32 24 27 34 44 47 32 16 19 36 16 18 22 23 20 17 11
50 47 42 38 32 29 29 23 20 17 17 18 18 19 20 15 19 35 31 36 39 35 20 29 33 35 41 39 27 25 24 41 37 31 26 31 38 39 18 31 33 35 30 28 24
51 52 46 40 34 29 25 25 21 19 16 16 16 16 12 10 20 8 24 29 33 31 26 25 27 37 42 35 45 41 34 32 35 22 21 31 36 25 27 34 39 36 35 26 28
46 51 53 47 37 31 27 20 19 18 18 15 12 11 8 2 3 2 10 22 29 39 23 29 32 41 34 35 38 35 38 45 34 17 23 31 34 36 34 39 34 28 28 33 32
42 47 49 51 48 36 27 23 18 17 16 16 10 7 5 13 12 4 10 16 31 28 30 31 35 37 32 32 34 35 35 33 36 31 33 35 34 32 37 30 23 28 28 28 33
44 46 50 50 46 46 32 22 19 16 19 18 13 6 6 26 2 10 16 19 27 24 27 31 25 35 22 29 32 26 40 37 29 34 36 33 34 36 36 21 29 28 29 30 31
48 50 51 52 53 44 43 26 20 19 18 15 13 9 19 13 11 15 19 19 22 24 24 28 23 24 22 22 24 35 25 28 34 34 30 26 34 38 44 32 30 28 28 27 27
46 50 52 52 53 51 48 29 22 22 21 12 10 5 16 13 14 23 22 16 24 21 17 18 19 30 22 12 13 29 30 30 36 39 35 18 32 20 10 12 26 28 26 25 27
46 49 52 55 55 53 54 24 16 21 17 7 4 12 21 15 23 28 25 23 23 20 14 15 20 27 24 21 26 26 28 38 31 21 21 26 26 25 10 21 29 29 30 33 32
49 52 54 55 56 51 48 14 10 13 10 5 14 15 20 21 23 32 30 25 27 22 21 23 20 23 25 27 27 26 34 30 27 21 21 31 35 31 25 29 30 33 31 32 33
54 56 58 53 53 44 35 4 5 1 18 23 6 15 7 9 25 31 32 27 32 30 28 31 25 30 35 34 36 31 26 26 16 18 18 25 31 32 33 29 38 38 38 35 32
50 57 59 58 47 36 15 13 14 6 17 29 32 31 14 12 24 34 35 32 34 32 33 25 31 33 29 22 19 26 29 31 29 24 23 32 38 32 34 34 44 41 42 37 32
57 68 73 55 36 24 10 25 13 13 17 13 9 20 29 25 26 40 43 43 30 33 35 35 24 14 25 27 28 31 32 31 30 24 22 32 41 42 41 55 47 34 33 34 26
63 72 58 35 7 5 14 4 7 12 12 21 17 10 19 28 23 28 40 44 26 30 33 31 32 27 21 31 29 33 31 30 30 28 27 27 27 30 25 24 31 36 29 33 19
67 58 46 20 11 4 3 2 5 5 8 21 16 13 17 28 8 34 32 45 34 28 21 30 29 29 38 35 27 31 25 23 24 31 35 38 26 30 28 35 28 19 39 11 26
63 44 36 15 1 10 12 6 3 12 4 13 13 19 23 33 9 17 31 33 21 31 29 35 16 13 23 25 25 20 22 28 33 32 34 39 36 33 33 22 12 22 6 17 26
54 33 23 6 2 2 5 7 12 11 5 8 10 16 22 23 17 20 24 29 26 20 26 32 38 33 28 28 26 26 24 23 30 29 33 36 34 28 12 13 14 19 23 24 29
45 24 18 4 11 6 6 15 11 11 7 9 8 12 17 8 16 16 14 26 33 33 28 26 27 35 30 43 34 34 32 23 29 32 36 43 34 18 9 11 20 25 18 22 25
26 13 8 9 13 6 17 16 12 20 13 12 17 17 13 10 14 12 23 22 19 19 22 20 36 33 19 22 19 27 33 29 35 37 35 37 50 45 42 25 9 14 23 23 32
15 6 6 6 8 6 14 9 5 7 12 13 19 11 13 10 15 9 12 11 29 27 18 18 33 39 32 12 28 26 27 26 15 17 37 29 29 16 15 9 11 6 21 28 34
11 13 5 2 6 18 16 11 2 9 16 11 17 16 14 22 23 18 14 11 17 13 18 18 11 18 33 26 30 23 25 26 30 26 23 31 23 12 5 16 26 32 29 30 38
8 8 5 4 22 9 12 9 7 12 8 10 11 19 15 17 21 26 25 23 2 4 11 15 13 26 38 35 32 33 32 26 17 26 27 25 29 36 37 12 15 21 35 49 43
16 13 7 6 13 10 12 11 6 13 12 6 8 7 9 15 9 17 19 18 18 17 10 10 12 19 24 37 41 29 29 29 32 35 47 37 30 14 19 22 41 43 37 45 43
12 6 8 4 4 14 6 11 10 4 16 11 12 11 16 18 10 15 15 12 19 19 14 14 25 26 25 11 5 13 26 30 30 25 35 40 49 43 43 46 35 43 44 39 44
3 6 6 4 6 14 9 4 11 6 3 8 8 9 5 7 14 26 23 20 26 32 28 9 24 37 41 41 41 44 44 41 44 47 46 49 53 47 44 45 46 55 37 41 44
13 10 5 16 10 13 6 4 7 5 8 5 15 11 9 14 19 31 25 21 23 6 11 9 10 32 37 40 43 46 43 43 45 48 49 49 49 43 51 51 40 42 44 51 53
6 5 9 4 4 10 5 4 5 5 13 5 12 15 22 22 20 28 33 41 26 19 19 7 11 11 29 35 32 32 36 36 30 34 36 36 34 34 38 35 41 41 46 56 66
Wind_Direction_850mb
12 6 360 358 353 339 333 322 314 302 295 289 285 284 275 256 239 251 239 227 217 224 204 196 203 208 211 219 224 232 255 243 243 253 253 251 233 252 231 274 260 260 273 288 297
15 14 7 359 358 355 343 335 325 314 306 300 289 286 274 267 260 260 234 222 222 212 193 194 195 197 206 212 206 217 228 242 255 270 265 266 247 247 227 245 259 249 252 261 266
15 15 13 3 355 354 354 343 337 324 312 299 289 280 272 281 295 190 210 221 205 196 180 200 202 197 213 212 208 211 239 241 250 267 263 277 277 261 261 258 255 266 269 274 267
11 12 11 11 358 347 343 345 339 337 320 308 300 282 272 332 318 211 218 198 189 167 196 203 202 203 219 214 220 236 230 243 263 277 238 255 257 259 257 261 268 275 271 268 262
354 358 3 2 3 350 334 330 330 330 336 320 309 295 285 242 261 217 158 169 171 172 191 197 201 209 219 213 224 218 247 232 249 247 255 266 263 264 263 257 255 258 258 256 260
338 341 346 350 354 353 335 315 311 317 322 328 320 301 279 253 142 174 147 152 166 181 197 204 215 218 257 239 216 212 241 249 241 247 240 246 255 256 249 238 250 245 255 259 257
329 331 335 338 340 347 339 308 292 296 303 307 311 291 265 235 179 176 173 170 189 193 204 209 226 202 230 224 235 246 253 237 245 241 245 252 262 252 242 246 249 252 251 255 258
327 329 330 333 333 337 339 312 290 291 295 289 289 264 261 212 202 191 183 194 184 188 204 200 211 216 233 199 212 232 230 249 228 216 229 216 259 263 136 206 229 237 255 251 250
327 327 328 329 328 332 334 311 282 294 288 265 312 224 258 248 201 194 191 183 181 186 187 205 212 226 206 228 226 209 244 227 244 173 241 198 258 210 179 233 255 259 251 248 243
326 325 323 323 323 328 332 305 291 289 262 212 251 250 241 231 197 195 195 200 193 197 207 217 221 225 227 217 233 223 215 239 253 185 204 249 240 253 228 242 248 247 251 254 255
327 326 321 320 319 325 329 346 16 173 219 241 289 258 131 153 175 189 191 199 199 210 222 203 225 223 234 222 258 293 287 296 263 232 243 263 275 271 267 255 253 252 255 254 250
339 331 323 315 314 316 304 240 335 311 292 249 253 249 229 198 185 192 186 199 202 218 216 222 232 253 241 266 261 260 258 258 261 265 259 268 267 268 262 256 255 263 265 260 259
338 332 317 313 308 301 235 262 278 306 270 174 224 231 217 210 221 195 194 205 204 224 226 234 233 200 269 243 240 240 251 263 265 275 260 265 265 253 247 245 250 265 262 264 266
339 331 327 328 300 217 282 284 230 288 272 140 178 163 189 201 227 204 204 211 235 240 232 245 242 241 251 241 232 246 240 243 255 262 262 266 282 274 276 259 217 219 241 245 250
342 336 340 322 220 210 245 279 260 259 256 138 119 148 175 198 68 200 201 213 241 234 253 240 229 242 236 238 238 256 275 273 269 267 277 266 264 266 252 248 234 232 239 248 268
342 337 352 18 10 223 274 265 260 238 259 122 135 154 162 208 202 156 198 231 264 274 254 261 274 277 252 234 240 279 265 261 264 262 259 261 261 268 261 276 266 202 263 310 305
340 329 352 158 92 322 196 208 232 255 109 136 124 194 164 183 179 181 198 210 223 215 246 257 255 252 229 259 242 224 256 266 260 247 256 257 247 258 310 284 223 274 302 301 294
339 340 359 354 279 217 179 228 264 48 23 52 274 234 220 184 215 201 219 212 224 271 286 273 257 229 244 225 250 256 246 258 269 273 287 295 279 270 291 263 275 263 278 278 284
344 349 358 323 147 194 251 234 6 17 15 334 302 257 226 234 246 234 255 251 244 258 287 280 274 283 243 293 279 261 253 296 294 283 278 276 279 276 269 215 236 248 246 260 268
356 325 349 337 179 230 255 286 347 12 324 300 288 312 299 290 215 241 253 265 251 252 281 295 294 278 272 254 254 257 286 278 259 271 266 267 279 270 341 295 264 254 271 282 283
20 265 345 281 218 235 260 34 25 76 330 325 327 308 318 317 301 255 233 251 226 235 224 249 253 273 298 243 258 243 246 248 265 256 265 280 273 308 262 314 304 305 298 296 286
292 260 351 279 244 217 291 35 27 281 262 289 296 309 299 297 295 283 272 250 30 266 272 251 263 262 260 265 269 268 270 270 248 269 251 264 267 276 283 284 288 276 270 268 289
306 291 309 264 273 209 98 261 258 307 315 313 280 307 301 289 292 271 287 302 295 257 216 249 230 266 256 237 232 245 264 268 262 267 259 268 269 241 237 266 247 268 289 300 306
300 267 157 265 327 311 336 260 282 113 292 297 283 293 293 277 282 283 299 356 336 294 43 279 265 258 273 287 170 281 278 277 275 265 269 264 282 281 282 286 299 301 295 301 299
333 72 343 306 107 321 281 318 264 271 336 278 223 291 302 259 260 251 261 292 297 257 273 325 262 261 265 277 283 286 281 273 264 261 262 276 277 282 299 305 299 295 307 305 293
329 339 302 292 298 275 181 159 292 140 272 312 284 169 270 266 266 300 301 286 276 255 285 185 267 274 268 261 265 268 271 269 269 274 275 280 283 285 282 290 302 348 321 304 308
337 306 292 340 230 270 357 352 155 279 264 320 320 290 294 302 308 272 253 270 247 253 266 255 248 259 258 257 262 263 260 265 276 264 268 276 299 326 311 328 331 318 303 304 303